Tracking 20083 objects as of 12-Dec-2019
HD Live streaming from Space Station
objects crossing your sky now

FLOCK 3P 10

Track FLOCK 3P 10 now!
10-day predictions
FLOCK 3P 10 is classified as:


NORAD ID: 41974
Int'l Code: 2017-008AC
Perigee: 488.7 km
Apogee: 497.2 km
Inclination: 97.4 °
Period: 94.3 minutes
Semi major axis: 6863 km
RCS: Unknown
Launch date: February 15, 2017
Source: United States (US)
Launch site: SRIHARIKOTA (SRI)
aabbcc
Your satellite tracking list
Your tracking list is empty




NASA's NSSDC Master Catalog

Two Line Element Set (TLE):
1 41974U 17008AC  19346.17245559  .00002154  00000-0  84883-4 0  9999
2 41974  97.3897  51.6777 0006151 229.1991 130.8714 15.26660379156695
Source of the keplerian elements: AFSPC